Weather History for Lancaster, PA

Change the Weather History Date:

Sunday, March 30, 2014

  Actual Average Record
Temperature  
Mean Temperature 40 °F -  
Max Temperature 46 °F 61 °F 86 °F (1998)
Min Temperature 35 °F 39 °F 24 °F (2008)
Degree Days  
Heating Degree Days 24    
Moisture  
Dew Point 38 °F    
Average Humidity 87    
Maximum Humidity 97    
Minimum Humidity 79    
Precipitation  
Precipitation 1.32 in - - ()
Sea Level Pressure  
Sea Level Pressure 29.61 in    
Wind  
Wind Speed 11 mph (NNW)    
Max Wind Speed 22 mph    
Max Gust Speed 31 mph    
Visibility 6 miles    
Events Rain    
Averages and records for this station are not official NWS values.
T = Trace of Precipitation, MM = Missing Value Source: NWS Daily Summary

Daily Weather History Graph

Daily Weather History Graph

Search for Another Location

Airport:

Trip Planner

Search our weather history database for the weather conditions in past years. The results will help you decide how hot, cold, wet, or windy it might be!

Date:

Astronomy

Mar. 30, 2014 Rise Set
Actual Time 6:52 AM EDT 7:27 PM EDT
Civil Twilight 6:25 AM EDT 7:54 PM EDT
Nautical Twilight 5:52 AM EDT 8:27 PM EDT
Astronomical Twilight 5:19 AM EDT 9:00 PM EDT
Moon 6:36 AM EDT (3/30) 7:37 PM EDT (3/30)
Length of Visible Light 13h 29m
Length of Day
12h 35m
Waning Crescent, 0% of the Moon is Illuminated
Mar 30
Waning Crescent
Mar 30
New
Apr 7
First Quarter
Apr 15
Full
Apr 22
Last Quarter

Hourly Weather History & Observations

Time (EDT) Temp. Windchill Dew Point Humidity Pressure Visibility Wind Dir Wind Speed Gust Speed Precip Events Conditions
12:35 AM 46.9 °F - 46.0 °F 97% 29.60 in 2.5 mi North 6.9 mph - 0.04 in Rain Light Rain
12:43 AM 46.9 °F - 46.0 °F 97% 29.60 in 3.0 mi North 9.2 mph - 0.05 in Rain Rain
12:53 AM 46.9 °F - 45.0 °F 93% 29.60 in 5.0 mi North 9.2 mph - 0.06 in Rain Light Rain
1:07 AM 46.0 °F 41.0 °F 44.1 °F 93% 29.59 in 4.0 mi North 10.4 mph - 0.00 in Rain Light Rain
1:16 AM 46.0 °F 41.4 °F 44.1 °F 93% 29.59 in 4.0 mi NNE 9.2 mph - 0.00 in Rain Light Rain
1:53 AM 46.0 °F 40.2 °F 44.1 °F 93% 29.57 in 6.0 mi NNE 12.7 mph - 0.00 in   Overcast
2:45 AM 46.0 °F 41.0 °F 44.1 °F 93% 29.55 in 10.0 mi ENE 10.4 mph - N/A   Overcast
2:53 AM 46.0 °F 41.4 °F 44.1 °F 93% 29.56 in 8.0 mi NE 9.2 mph - N/A   Overcast
3:53 AM 46.9 °F - 45.0 °F 93% 29.53 in 6.0 mi North 10.4 mph - 0.03 in Rain Light Rain
4:08 AM 46.9 °F - 45.0 °F 93% 29.52 in 7.0 mi NNW 5.8 mph - 0.01 in Rain Light Rain
4:20 AM 46.9 °F - 45.0 °F 93% 29.52 in 8.0 mi North 4.6 mph - 0.01 in   Overcast
4:26 AM 46.9 °F - 45.0 °F 93% 29.52 in 8.0 mi ENE 3.5 mph - 0.01 in Rain Light Rain
4:53 AM 46.9 °F - 44.1 °F 90% 29.52 in 10.0 mi NNE 9.2 mph - 0.01 in Rain Light Rain
5:48 AM 46.4 °F 44.3 °F 44.6 °F 93% 29.55 in 10.0 mi Variable 4.6 mph - 0.00 in Rain Light Rain
5:53 AM 46.9 °F - 44.1 °F 90% 29.55 in 10.0 mi North 5.8 mph - 0.00 in Rain Light Rain
6:53 AM 46.0 °F 43.1 °F 43.0 °F 89% 29.55 in 10.0 mi NNW 5.8 mph - 0.02 in   Overcast
7:53 AM 44.1 °F 37.4 °F 39.0 °F 82% 29.58 in 8.0 mi NNW 13.8 mph - 0.00 in Rain Light Rain
8:15 AM 43.0 °F 36.8 °F 39.0 °F 86% 29.57 in 9.0 mi North 11.5 mph - 0.01 in Rain Light Rain
8:53 AM 44.1 °F 38.1 °F 39.0 °F 82% 29.58 in 10.0 mi NNW 11.5 mph 19.6 mph 0.01 in   Mostly Cloudy
9:24 AM 43.0 °F 36.0 °F 37.9 °F 82% 29.57 in 7.0 mi NNW 13.8 mph 21.9 mph 0.01 in Rain Rain
9:53 AM 42.1 °F 34.5 °F 37.0 °F 82% 29.58 in 10.0 mi NNW 15.0 mph - 0.01 in Rain Light Rain
10:53 AM 41.0 °F 31.9 °F 35.1 °F 79% 29.60 in 5.0 mi NNW 19.6 mph 27.6 mph 0.02 in Rain Rain
11:32 AM 39.0 °F 29.0 °F 35.1 °F 86% 29.57 in 2.0 mi NNW 20.7 mph 31.1 mph 0.15 in Rain Heavy Rain
11:53 AM 39.0 °F 28.8 °F 34.0 °F 82% 29.57 in 2.0 mi NNW 21.9 mph 29.9 mph 0.26 in Rain Heavy Rain
12:32 PM 37.9 °F 32.1 °F 34.0 °F 86% 29.61 in 2.0 mi North 8.1 mph - 0.18 in Rain Heavy Rain
12:43 PM 37.9 °F 29.6 °F 34.0 °F 86% 29.62 in 1.2 mi North 13.8 mph 19.6 mph 0.27 in Rain Heavy Rain
12:53 PM 37.0 °F 27.7 °F 34.0 °F 89% 29.60 in 1.5 mi NNW 16.1 mph 25.3 mph 0.34 in Rain Heavy Rain
1:02 PM 37.0 °F 27.7 °F 34.0 °F 89% 29.60 in 2.0 mi NNW 16.1 mph - 0.03 in Rain Heavy Rain
1:12 PM 37.0 °F 28.5 °F 34.0 °F 89% 29.60 in 1.5 mi NNW 13.8 mph - 0.10 in Rain Heavy Rain
1:27 PM 37.0 °F 28.5 °F 34.0 °F 89% 29.60 in 2.5 mi NNW 13.8 mph - 0.17 in Rain Heavy Rain
1:35 PM 37.0 °F 29.3 °F 34.0 °F 89% 29.60 in 4.0 mi NNW 11.5 mph - 0.19 in Rain Rain
1:53 PM 37.9 °F 28.5 °F 34.0 °F 86% 29.59 in 3.0 mi NNW 17.3 mph - 0.23 in Rain Rain
2:17 PM 37.9 °F 28.5 °F 34.0 °F 86% 29.59 in 7.0 mi NNW 17.3 mph - 0.02 in Rain Light Rain
2:53 PM 37.9 °F 30.0 °F 33.1 °F 83% 29.59 in 10.0 mi NW 12.7 mph - 0.02 in   Overcast
3:53 PM 37.0 °F 27.7 °F 33.1 °F 86% 29.59 in 3.0 mi NNW 16.1 mph - 0.08 in Rain Rain
4:53 PM 37.0 °F 28.1 °F 33.1 °F 86% 29.60 in 8.0 mi NW 15.0 mph 24.2 mph 0.09 in Rain Light Rain
5:50 PM 35.6 °F 28.0 °F 30.2 °F 81% 29.64 in 2.5 mi NNW 10.4 mph - 0.09 in Rain Heavy Rain
5:53 PM 36.0 °F 29.0 °F 30.9 °F 82% 29.65 in 3.0 mi NNW 9.2 mph - 0.10 in Rain Heavy Rain
6:53 PM 36.0 °F 25.6 °F 30.9 °F 82% 29.69 in 10.0 mi NNW 18.4 mph - 0.02 in   Overcast
7:03 PM 36.0 °F 26.3 °F 30.9 °F 82% 29.69 in 10.0 mi NNW 16.1 mph - N/A   Overcast
7:53 PM 36.0 °F 26.7 °F 30.9 °F 82% 29.72 in 10.0 mi NW 15.0 mph 24.2 mph 0.00 in Rain Light Rain
8:53 PM 35.1 °F 24.8 °F 30.9 °F 85% 29.75 in 7.0 mi NNW 17.3 mph - 0.00 in Rain Light Rain
9:53 PM 35.1 °F 26.4 °F 30.9 °F 85% 29.77 in 9.0 mi NW 12.7 mph - 0.01 in Rain Light Rain
10:53 PM 35.1 °F 26.9 °F 30.9 °F 85% 29.79 in 10.0 mi NW 11.5 mph - 0.01 in Rain Light Rain
11:53 PM 36.0 °F 28.0 °F 30.9 °F 82% 29.81 in 10.0 mi NNW 11.5 mph - 0.00 in Rain Light Rain